Home   Weather   Kenema   Past weeks

Flag for Sierra Leone Past Weather in Kenema, Sierra Leone — Yesterday and Last 2 Weeks

Now
90 °F

Scattered clouds.


Feels Like: 98 °F
Forecast: 72 / 95 °F
Wind: 5 mph from Northwest

Location: Roberts Field

Current Time: Jan 16, 2017 at 1:06:49 pm

Latest Report: Jan 16, 2017 at 12:30 pm


Visibility: N/A

Pressure: 29.80 "Hg

Humidity: 59%

Dew Point: 73 °F

Location of KenemaLocation

Past Weather in Kenema — Graph

°F

Kenema Temperature Yesterday

Maximum temperature yesterday: 91 °F (at 1:30 pm)
Minimum temperature yesterday: 70 °F (at 7:00 am)
Average temperature yesterday: 79 °F

High & Low Weather Summary for the Past Weeks

 TemperatureHumidityPressure
High95 °F (Jan 14, 3:30 pm)100% (Jan 7, 4:30 am)29.92 "Hg (Jan 7, 4:30 am)
Low68 °F (Jan 14, 6:00 am)31% (Jan 14, 12:30 pm)29.71 "Hg (Jan 14, 3:30 pm)
Average81 °F83%29.83 "Hg
* Reported Jan 1 12:00 pm — Jan 16 12:00 pm, Kenema, Weather by CustomWeather, © 2017

Note: Actual official high and low records may vary slightly from our data, if they occured in-between our weather recording intervals... More about our weather records

Advertising

Kenema Weather History for the Previous 24 Hours

Scroll right to see more
 ConditionsComfort  
Time TempWeatherWind HumidityBarometerVisibility
12:00 pm
Mon, Jan 16
88 °FScattered clouds.6 mph62%29.83 "HgN/A
11:30 am88 °FScattered clouds.5 mph62%29.83 "HgN/A
11:00 am86 °FScattered clouds.3 mph70%29.86 "HgN/A
10:30 am84 °FBroken clouds.9 mph74%29.86 "Hg6 mi
10:00 am82 °FPartly sunny.10 mph79%29.86 "Hg5 mi
9:00 am77 °FPartly sunny.7 mph94%29.86 "Hg4 mi
8:30 am77 °FFog.6 mph89%29.86 "Hg4 mi
8:00 am75 °FFog.3 mph94%29.83 "Hg3 mi
7:30 am73 °FFog.3 mph94%29.83 "Hg3 mi
7:00 am73 °FFog.5 mph94%29.83 "Hg3 mi
6:30 am73 °FFog.5 mph89%29.80 "Hg3 mi
5:30 am73 °FFog.5 mph89%29.80 "Hg3 mi
5:00 am73 °FFog.7 mph94%29.80 "Hg4 mi
4:30 am73 °FFog.6 mph94%29.80 "Hg4 mi
3:00 am73 °FPassing clouds.3 mph94%29.80 "Hg4 mi
2:30 am73 °FPassing clouds.3 mph94%29.80 "Hg5 mi
2:00 am73 °FPassing clouds.No wind94%29.80 "Hg5 mi
12:30 am75 °FPassing clouds.No wind94%29.83 "Hg5 mi
12:00 am77 °FPassing clouds.No wind94%29.83 "Hg5 mi
11:30 pm
Sun, Jan 15
77 °FPassing clouds.No wind94%29.86 "HgN/A
10:00 pm77 °FPassing clouds.No wind94%29.86 "HgN/A
9:30 pm77 °FPassing clouds.No wind94%29.86 "HgN/A
9:00 pm79 °FPassing clouds.No wind84%29.86 "HgN/A
8:30 pm79 °FPassing clouds.No wind84%29.83 "HgN/A
8:00 pm79 °FPassing clouds.No wind84%29.83 "HgN/A
7:30 pm81 °FPassing clouds.No wind79%29.83 "HgN/A
7:00 pm81 °FSunny.3 mph84%29.80 "Hg10 mi
6:30 pm82 °FSunny.6 mph79%29.80 "Hg10 mi
6:00 pm84 °FSunny.6 mph70%29.77 "Hg10 mi
5:30 pm86 °FSunny.8 mph66%29.77 "Hg10 mi
5:00 pm88 °FSunny.6 mph62%29.77 "Hg10 mi
4:30 pm88 °FPassing clouds.8 mph62%29.74 "HgN/A
4:00 pm90 °FPassing clouds.9 mph59%29.74 "HgN/A
3:30 pm90 °FPassing clouds.12 mph59%29.74 "Hg6 mi
3:00 pm90 °FScattered clouds.12 mph59%29.77 "Hg6 mi
2:30 pm90 °FPartly sunny.8 mph59%29.77 "Hg6 mi
2:00 pm91 °FPartly sunny.10 mph56%29.77 "Hg6 mi
1:30 pm91 °FPartly sunny.9 mph52%29.80 "Hg6 mi
1:00 pm90 °FPartly sunny.6 mph55%29.80 "Hg6 mi
Weather by CustomWeather, © 2017

See weather overviewHow to use our weather pages